When you browse on this site, cookies collect data to enhance your experience and personalize the content and advertising you see.
Visit our Privacy Policy to learn more. By continuing to use the site, you agree to this use of cookies and data.
  • In Slovakia
  • List of Countries
  • For 7 days
  • Water Temperature
  • Weather Map
  • Weather Widgets
  • user-avatar
    Login

    Hourly Weather Algiers

    Today, 18 September, Wednesday

    Time Temperature Precipitation Wind Pressure Humidity
    00:00 +27°C° 0 mm 2 mps 748 mmHg 60%
    01:00 +27°C° 0 mm 2 mps 748 mmHg 60%
    02:00 +27°C° 0 mm 2 mps 747 mmHg 61%
    03:00 +27°C° 0 mm 2 mps 747 mmHg 61%
    04:00 +27°C° 0 mm 2 mps 747 mmHg 60%
    05:00 +27°C° 0 mm 2 mps 748 mmHg 59%
    06:00 +27°C° 0 mm 2 mps 748 mmHg 56%
    07:00 +28°C° 0.1 mm 2 mps 748 mmHg 52%
    08:00 +30°C° 0.1 mm 1 mps 748 mmHg 49%
    09:00 +31°C° 0.1 mm 1 mps 748 mmHg 45%
    10:00 +32°C° 0.2 mm 2 mps 748 mmHg 44%
    11:00 +32°C° 0.2 mm 2 mps 748 mmHg 42%
    12:00 +34°C° 0.2 mm 3 mps 749 mmHg 40%
    13:00 +34°C° 0.1 mm 2 mps 748 mmHg 42%
    14:00 +32°C° 0.1 mm 2 mps 748 mmHg 44%
    15:00 +32°C° 0.1 mm 2 mps 747 mmHg 47%
    16:00 +30°C° 0.2 mm 1 mps 747 mmHg 51%
    17:00 +29°C° 0.2 mm 1 mps 747 mmHg 56%
    18:00 +28°C° 0.2 mm 1 mps 747 mmHg 60%
    19:00 +28°C° 0 mm 1 mps 748 mmHg 61%
    20:00 +28°C° 0 mm 1 mps 748 mmHg 62%
    21:00 +27°C° 0 mm 1 mps 748 mmHg 64%
    22:00 +27°C° 0.1 mm 1 mps 748 mmHg 67%
    23:00 +27°C° 0.1 mm 2 mps 748 mmHg 70%

    Tomorrow, 19 September, Thursday

    Time Temperature Precipitation Wind Pressure Humidity
    00:00 +26°C° 0.1 mm 2 mps 748 mmHg 73%
    01:00 +26°C° 0 mm 3 mps 748 mmHg 77%
    02:00 +26°C° 0 mm 3 mps 748 mmHg 81%
    03:00 +25°C° 0 mm 3 mps 748 mmHg 84%
    04:00 +25°C° 0 mm 3 mps 748 mmHg 85%
    05:00 +25°C° 0 mm 3 mps 748 mmHg 87%
    06:00 +25°C° 0 mm 2 mps 748 mmHg 88%
    07:00 +26°C° 0 mm 2 mps 749 mmHg 82%
    08:00 +27°C° 0 mm 3 mps 749 mmHg 75%
    09:00 +28°C° 0 mm 3 mps 749 mmHg 69%
    10:00 +29°C° 0 mm 3 mps 749 mmHg 66%
    11:00 +29°C° 0 mm 3 mps 749 mmHg 64%
    12:00 +30°C° 0 mm 3 mps 749 mmHg 61%
    13:00 +29°C° 0 mm 3 mps 748 mmHg 63%
    14:00 +29°C° 0 mm 3 mps 748 mmHg 66%
    15:00 +28°C° 0 mm 2 mps 748 mmHg 68%
    16:00 +28°C° 0 mm 2 mps 748 mmHg 71%
    17:00 +27°C° 0 mm 1 mps 748 mmHg 74%
    18:00 +26°C° 0 mm 1 mps 748 mmHg 77%
    19:00 +26°C° 0 mm 1 mps 748 mmHg 78%
    20:00 +24°C° 0 mm 0 mps 749 mmHg 79%
    21:00 +24°C° 0 mm 0 mps 749 mmHg 79%
    22:00 +26°C° 0 mm 1 mps 749 mmHg 80%
    23:00 +25°C° 0 mm 1 mps 749 mmHg 81%

    Day after tomorrow, 20 September, Friday

    Time Temperature Precipitation Wind Pressure Humidity
    00:00 +25°C° 0 mm 1 mps 749 mmHg 81%
    01:00 +25°C° 0 mm 1 mps 748 mmHg 82%
    02:00 +25°C° 0 mm 1 mps 748 mmHg 83%
    03:00 +25°C° 0 mm 1 mps 748 mmHg 83%
    04:00 +25°C° 0 mm 2 mps 748 mmHg 83%
    05:00 +25°C° 0 mm 3 mps 748 mmHg 82%
    06:00 +25°C° 0 mm 3 mps 748 mmHg 81%
    07:00 +26°C° 0 mm 4 mps 748 mmHg 76%
    08:00 +27°C° 0 mm 4 mps 748 mmHg 70%
    09:00 +28°C° 0 mm 4 mps 749 mmHg 65%
    10:00 +30°C° 0 mm 5 mps 748 mmHg 58%
    11:00 +32°C° 0 mm 5 mps 748 mmHg 51%
    12:00 +34°C° 0 mm 6 mps 748 mmHg 44%
    13:00 +33°C° 0 mm 6 mps 747 mmHg 48%
    14:00 +32°C° 0 mm 6 mps 747 mmHg 53%
    15:00 +32°C° 0 mm 5 mps 747 mmHg 57%
    16:00 +30°C° 0 mm 6 mps 746 mmHg 57%
    17:00 +30°C° 0 mm 7 mps 746 mmHg 56%
    18:00 +31°C° 0 mm 8 mps 746 mmHg 56%
    19:00 +30°C° 0 mm 7 mps 746 mmHg 50%
    20:00 +32°C° 0 mm 7 mps 746 mmHg 45%
    21:00 +32°C° 0 mm 7 mps 747 mmHg 39%
    22:00 +32°C° 0 mm 7 mps 747 mmHg 39%
    23:00 +32°C° 0 mm 7 mps 747 mmHg 38%

    21 September, Saturday

    Time Temperature Precipitation Wind Pressure Humidity
    00:00 +32°C° 0 mm 8 mps 747 mmHg 38%
    01:00 +29°C° 0 mm 7 mps 747 mmHg 52%
    02:00 +27°C° 0 mm 6 mps 747 mmHg 65%
    03:00 +26°C° 0 mm 5 mps 747 mmHg 79%
    04:00 +26°C° 0 mm 4 mps 747 mmHg 74%
    05:00 +26°C° 0 mm 3 mps 747 mmHg 69%
    06:00 +26°C° 0 mm 3 mps 747 mmHg 64%
    07:00 +28°C° 0 mm 3 mps 748 mmHg 57%
    08:00 +29°C° 0 mm 2 mps 748 mmHg 49%
    09:00 +31°C° 0 mm 2 mps 748 mmHg 42%
    10:00 +33°C° 0 mm 4 mps 748 mmHg 38%
    11:00 +34°C° 0 mm 5 mps 747 mmHg 35%
    12:00 +35°C° 0 mm 6 mps 746 mmHg 31%
    13:00 +36°C° 0 mm 6 mps 746 mmHg 28%
    14:00 +36°C° 0 mm 7 mps 745 mmHg 25%
    15:00 +38°C° 0 mm 7 mps 745 mmHg 22%
    16:00 +38°C° 0 mm 6 mps 745 mmHg 23%
    17:00 +36°C° 0 mm 6 mps 745 mmHg 24%
    18:00 +36°C° 0 mm 5 mps 745 mmHg 25%
    19:00 +34°C° 0 mm 6 mps 745 mmHg 34%
    20:00 +30°C° 0 mm 6 mps 746 mmHg 43%
    21:00 +28°C° 0 mm 7 mps 746 mmHg 52%
    22:00 +28°C° 0 mm 6 mps 746 mmHg 53%
    23:00 +28°C° 0 mm 6 mps 746 mmHg 53%

    22 September, Sunday

    Time Temperature Precipitation Wind Pressure Humidity
    00:00 +28°C° 0 mm 5 mps 746 mmHg 53%
    01:00 +27°C° 0 mm 5 mps 746 mmHg 55%
    02:00 +27°C° 0 mm 4 mps 746 mmHg 57%
    03:00 +27°C° 0 mm 4 mps 746 mmHg 59%
    04:00 +26°C° 0 mm 3 mps 747 mmHg 60%
    05:00 +26°C° 0 mm 3 mps 747 mmHg 62%
    06:00 +26°C° 0 mm 2 mps 747 mmHg 64%
    07:00 +26°C° 0 mm 2 mps 747 mmHg 64%
    08:00 +27°C° 0 mm 2 mps 748 mmHg 65%
    09:00 +27°C° 0 mm 2 mps 748 mmHg 65%
    10:00 +27°C° 0 mm 2 mps 748 mmHg 65%
    11:00 +28°C° 0 mm 3 mps 748 mmHg 64%
    12:00 +28°C° 0 mm 3 mps 748 mmHg 63%
    13:00 +28°C° 0 mm 3 mps 748 mmHg 63%
    14:00 +28°C° 0 mm 3 mps 748 mmHg 63%
    15:00 +28°C° 0 mm 3 mps 748 mmHg 63%
    16:00 +27°C° 0 mm 3 mps 748 mmHg 64%
    17:00 +27°C° 0 mm 2 mps 748 mmHg 66%
    18:00 +26°C° 0 mm 2 mps 748 mmHg 67%
    19:00 +26°C° 0 mm 1 mps 749 mmHg 68%
    20:00 +26°C° 0 mm 1 mps 749 mmHg 68%
    21:00 +25°C° 0 mm 1 mps 750 mmHg 68%
    22:00 +25°C° 0 mm 1 mps 750 mmHg 68%
    23:00 +25°C° 0 mm 1 mps 750 mmHg 68%

    23 September, Monday

    Time Temperature Precipitation Wind Pressure Humidity
    00:00 +25°C° 0 mm 1 mps 750 mmHg 68%
    01:00 +25°C° 0 mm 1 mps 750 mmHg 67%
    02:00 +25°C° 0 mm 1 mps 750 mmHg 66%
    03:00 +25°C° 0 mm 1 mps 750 mmHg 65%
    04:00 +24°C° 0 mm 1 mps 750 mmHg 66%
    05:00 +24°C° 0 mm 1 mps 750 mmHg 68%
    06:00 +24°C° 0 mm 1 mps 750 mmHg 69%
    07:00 +25°C° 0 mm 1 mps 750 mmHg 64%
    08:00 +26°C° 0 mm 2 mps 751 mmHg 59%
    09:00 +27°C° 0 mm 2 mps 751 mmHg 54%
    10:00 +28°C° 0 mm 2 mps 751 mmHg 53%
    11:00 +28°C° 0 mm 2 mps 751 mmHg 52%
    12:00 +29°C° 0 mm 2 mps 751 mmHg 50%
    13:00 +29°C° 0 mm 2 mps 750 mmHg 53%
    14:00 +28°C° 0 mm 2 mps 750 mmHg 56%
    15:00 +28°C° 0 mm 2 mps 750 mmHg 58%
    16:00 +27°C° 0 mm 2 mps 750 mmHg 63%
    17:00 +26°C° 0 mm 2 mps 750 mmHg 68%
    18:00 +26°C° 0 mm 2 mps 750 mmHg 73%
    19:00 +25°C° 0 mm 2 mps 751 mmHg 74%
    20:00 +25°C° 0 mm 2 mps 751 mmHg 75%
    21:00 +25°C° 0 mm 2 mps 751 mmHg 76%
    22:00 +25°C° 0 mm 2 mps 751 mmHg 76%
    23:00 +24°C° 0 mm 2 mps 751 mmHg 76%
    Show more